Regional Weather Roundup
Issued by NWS

Home | Current Version | Previous Version | Text Only | Print | Product List | Glossary Off
Versions: 1 2 3 4 5 6 7 8 9 10 11 12 13 14 15 16 17 18 19 20 21 22 23 24 25 26 27 28 29 30 31 32 33 34 35 36 37 38 39 40 41 42 43 44 45 46 47 48 49 50

000
ASUS43 KLOT 200103
RWRIL

ILLINOIS REGIONAL WEATHER ROUNDUP
NATIONAL WEATHER SERVICE CHICAGO/ROMEOVILLE IL
800 PM CDT SAT MAY 19 2018

NOTE: "FAIR" INDICATES FEW OR NO CLOUDS BELOW 12,000 FEET WITH NO
SIGNIFICANT WEATHER AND/OR OBSTRUCTIONS TO VISIBILITY.

* THESE STATIONS ARE NOT UNDER NWS QUALITY CONTROL. THEY ALSO MAY NOT
  REPORT WEATHER SUCH AS PRECIPITATION OR FOG.

ILZ001-002-007-009-015-016-024-200200-
NORTHWEST ILLINOIS

CITY           SKY/WX    TMP DP  RH WIND       PRES   REMARKS
MOLINE         FAIR      79  62  56 CALM      29.86R HX  80
SAVANNA*       FAIR      74  61  62 E6        29.87S
$$

ILZ003-004-008-010-011-017-018-200200-
NORTH CENTRAL ILLINOIS

CITY           SKY/WX    TMP DP  RH WIND       PRES   REMARKS
ROCKFORD       CLOUDY    67  59  75 E6        29.93R
FREEPORT*      FAIR      69  60  72 E8        29.92S
ROCHELLE*      FAIR      67  62  83 E9        29.93R
DE KALB*       FAIR      64  60  88 E5        29.94R
PERU*          FAIR      78  60  54 NE10      29.90R
$$

ILZ005-006-012>014-019>023-200200-
NORTHEAST ILLINOIS

CITY           SKY/WX    TMP DP  RH WIND       PRES   REMARKS
CHICAGO-OHARE  CLOUDY    64  55  72 E6        29.92S
CHICAGO-MIDWAY CLOUDY    60  54  80 E6        29.93R
AURORA         FAIR      66  61  84 NE5       29.93R
LANSING*       CLOUDY    58  57  96 NE8       29.94R FOG
JOLIET*        FAIR      69  62  78 N7        29.92R
WAUKEGAN       FAIR      54  52  93 SE5       29.91F FOG
DUPAGE AIRPORT CLOUDY    66  61  84 NE3       29.92R
KANKAKEE*      FAIR      69  62  78 NE6       29.91R
WHEELING       CLOUDY    61  55  81 E3        29.95R
MORRIS*        FAIR      69  60  72 NE3       29.91R
ROMEOVILLE*    FAIR      66  60  79 N7        29.92S
NORTHERLY ISL    N/A     51  49  92 E3          N/A
$$

LMZ740>746-200200-
SOUTHERN LAKE MICHIGAN

STATION/POSITION SKY/WX   TEMP    WIND        PRES    VSBY  WAVE
                          AIR SEA DIR/SP/G                  HT/PER
                          (F)     (DEG/KT/KT) (MB)    (MI)  (FT/S)
WILMETTE HARBOR            49 49  170/  4/  4   N/A           1/ 5
HARRISON CRIB              51      70/  3/  4   N/A
BURNHAM HARBOR             51      60/  5       N/A
CALUMET HARBOR             53      60/  3/  4 1013.2R
BURNS HARBOR               57      60/  6/  9 1013.9S
MICHIGAN CITY              56      60/  7/  7   N/A
MICHIGAN CITY 6N           54 54  110/  4/  6   N/A           1
ST. JOSEPH                 54 55   40/  4/  4 1014.3R         1
$$

ILZ025>027-034>036-040-047-049-050-058-095>099-200200-
WEST-CENTRAL ILLINOIS

CITY           SKY/WX    TMP DP  RH WIND       PRES   REMARKS
QUINCY         CLOUDY    74  63  68 S8        29.90R
GALESBURG*     FAIR      76  62  60 SW8       29.90R
MACOMB*        MOCLDY    76  63  63 S6        29.92R
JACKSONVILLE*  PTCLDY    74  59  60 S5        29.92R
PITTSFIELD*    CLOUDY    73  63  72 S6        29.94R
$$

ILZ028>032-037-038-041>044-048-051>054-059>061-200200-
CENTRAL ILLINOIS

CITY           SKY/WX    TMP DP  RH WIND       PRES   REMARKS
PONTIAC        FAIR      78  59  52 N9        29.90R
BLOOMINGTON    FAIR      79  63  57 W5        29.91R HX  80
DECATUR        FAIR      75  65  70 SW9       29.91R
PEORIA         FAIR      78  64  61 SW10      29.88R HX  80
LACON*         FAIR      76  62  63 E3        29.87R
LINCOLN*       FAIR      78  64  62 SW7       29.90R HX  80
SPRINGFIELD    FAIR      78  66  66 SW9       29.91R HX  80
TAYLORVILLE    FAIR      73  61  65 S8        29.92R
$$

ILZ033-039-045-046-055>057-062-063-200200-
EAST-CENTRAL ILLINOIS

CITY           SKY/WX    TMP DP  RH WIND       PRES   REMARKS
CHAMPAIGN      FAIR      78  64  61 SW12      29.91R HX  80
DANVILLE*      MOCLDY    75  67  76 SW8       29.89R
RANTOUL*       MOCLDY    80  65  61 SW9       29.91R HX  82
MATTOON        FAIR      75  67  76 S6        29.91R
PARIS*         FAIR      74  68  83 SW6       29.93R
$$

ILZ079-100>102-200200-
SOUTHWEST ILLINOIS

CITY           SKY/WX    TMP DP  RH WIND       PRES   REMARKS
BELLEVILLE     CLOUDY    72  61  70 NW6       29.91R
CAHOKIA*       MOCLDY    72  59  63 W9        29.93R
$$

ILZ064>066-069>071-074>076-080>082-084>086-088>090-092>094-200200-
SOUTH-CENTRAL ILLINOIS

CITY           SKY/WX    TMP DP  RH WIND       PRES   REMARKS
CARBONDALE     FAIR      68  64  87 E13       29.88S
CAIRO*         FAIR      70  67  90 S9        29.98R
EFFINGHAM*     FAIR      74  61  64 SE3       29.94S
MARION         FAIR      69  68  98 CALM      29.97R
CENTRALIA*     CLOUDY    73  63  72 CALM      29.93R
SALEM*         FAIR      75  63  66 CALM      29.92R
METROPOLIS*    FAIR      69  67  93 S3        30.00R
$$

ILZ067-068-072-073-078-083-087-091-200200-
SOUTHEAST ILLINOIS

CITY           SKY/WX    TMP DP  RH WIND       PRES   REMARKS
LAWRENCEVILLE  FAIR      78  66  66 SW5       29.93R HX  80
FLORA*         FAIR      78  67  67 CALM      29.93R HX  80
FAIRFIELD*     FAIR      75  67  78 CALM      29.92R
HARRISBURG*    FAIR      74  69  85 S6        29.92R
ROBINSON*      FAIR      75  66  75 SW7       29.94R
CARMI*         FAIR      75  69  79 SE9       29.88F
$$

ABBREVIATIONS USED IN REMARKS
   TC - TEMPERATURE IN CELSIUS
  WCI - WIND CHILL INDEX
   HX - HEAT INDEX
  VSB - VISIBILITY
$$





USA.gov is the U.S. government's official web portal to all federal, state and local government web resources and services.